Weather History for Horseshoe Bay, TX

Change the Weather History Date:

Tuesday, February 19, 2013

  Actual Average (KBMQ) Record (KBMQ)
Temperature  
Mean Temperature 50 °F -  
Max Temperature 64 °F 60 °F 75 °F (2007)
Min Temperature 35 °F 41 °F 24 °F (2006)
Degree Days  
Heating Degree Days 16    
Moisture  
Dew Point 28 °F    
Average Humidity 41    
Maximum Humidity 81    
Minimum Humidity 21    
Precipitation  
Precipitation 0.00 in - - ()
Sea Level Pressure  
Sea Level Pressure 30.16 in    
Wind  
Wind Speed 4 mph (ESE)    
Max Wind Speed 12 mph    
Max Gust Speed 18 mph    
Visibility 10 miles    
Events      
Averages and records for this station are not official NWS values.
T = Trace of Precipitation, MM = Missing Value Source: NWS Daily Summary

Daily Weather History Graph

Daily Weather History Graph

Search for Another Location

Airport:

Trip Planner

Search our weather history database for the weather conditions in past years. The results will help you decide how hot, cold, wet, or windy it might be!

Date:

Astronomy

Feb. 19, 2013 Rise Set
Actual Time 6:09 AM MST 5:25 PM MST
Civil Twilight 5:45 AM MST 5:49 PM MST
Nautical Twilight 5:17 AM MST 6:17 PM MST
Astronomical Twilight 4:49 AM MST 6:45 PM MST
Moon 12:10 PM MST (2/19) 1:30 AM MST (2/19)
Length of Visible Light 12h 04m
Length of Day
11h 15m
Waxing Gibbous, 68% of the Moon is Illuminated
Feb 19
Waxing Gibbous
Feb 25
Full
Mar 4
Last Quarter
Mar 11
New
Mar 19
First Quarter

Hourly Weather History & Observations

Time (MST) Temp. Windchill Dew Point Humidity Pressure Visibility Wind Dir Wind Speed Gust Speed Precip Events Conditions
12:15 AM 51.8 °F - 32.0 °F 47% 30.10 in 10.0 mi NNE 3.5 mph - N/A   Clear
12:35 AM 51.8 °F - 32.0 °F 47% 30.12 in 10.0 mi Calm Calm - N/A   Clear
12:55 AM 50.0 °F - 30.2 °F 47% 30.12 in 10.0 mi Calm Calm - N/A   Clear
1:15 AM 48.2 °F - 30.2 °F 50% 30.12 in 10.0 mi Calm Calm - N/A   Clear
1:35 AM 46.4 °F 42.9 °F 30.2 °F 53% 30.11 in 10.0 mi NNE 6.9 mph - N/A   Clear
1:55 AM 50.0 °F - 28.4 °F 43% 30.12 in 10.0 mi NNE 4.6 mph - N/A   Clear
2:15 AM 48.2 °F - 28.4 °F 46% 30.14 in 10.0 mi Calm Calm - N/A   Clear
2:35 AM 42.8 °F - 30.2 °F 61% 30.15 in 10.0 mi Calm Calm - N/A   Clear
2:55 AM 42.8 °F - 30.2 °F 61% 30.15 in 10.0 mi Calm Calm - N/A   Clear
3:15 AM 41.0 °F 39.0 °F 30.2 °F 65% 30.15 in 10.0 mi ENE 3.5 mph - N/A   Clear
3:35 AM 44.6 °F - 28.4 °F 53% 30.15 in 10.0 mi Calm Calm - N/A   Clear
3:55 AM 44.6 °F - 28.4 °F 53% 30.16 in 10.0 mi Calm Calm - N/A   Clear
4:15 AM 41.0 °F - 30.2 °F 65% 30.17 in 10.0 mi Calm Calm - N/A   Clear
4:35 AM 41.0 °F - 30.2 °F 65% 30.19 in 10.0 mi Calm Calm - N/A   Clear
4:55 AM 39.2 °F - 30.2 °F 70% 30.19 in 10.0 mi Calm Calm - N/A   Clear
5:35 AM 37.4 °F - 30.2 °F 75% 30.21 in 10.0 mi Calm Calm - N/A   Clear
5:55 AM 35.6 °F 32.8 °F 30.2 °F 81% 30.22 in 10.0 mi East 3.5 mph - N/A   Clear
6:15 AM 35.6 °F 30.7 °F 30.2 °F 81% 30.23 in 10.0 mi ENE 5.8 mph - N/A   Clear
6:35 AM 37.4 °F - 32.0 °F 81% 30.23 in 10.0 mi Calm Calm - N/A   Clear
6:55 AM 41.0 °F 39.0 °F 32.0 °F 70% 30.24 in 10.0 mi SW 3.5 mph - N/A   Clear
7:15 AM 44.6 °F - 32.0 °F 61% 30.26 in 10.0 mi Calm Calm - N/A   Clear
7:35 AM 48.2 °F - 32.0 °F 54% 30.26 in 10.0 mi Calm Calm - N/A   Clear
7:55 AM 50.0 °F - 30.2 °F 47% 30.26 in 10.0 mi ENE 4.6 mph - N/A   Clear
8:15 AM 50.0 °F - 30.2 °F 47% 30.26 in 10.0 mi East 4.6 mph - N/A   Clear
8:35 AM 51.8 °F - 30.2 °F 44% 30.25 in 10.0 mi East 6.9 mph - N/A   Clear
8:55 AM 51.8 °F - 30.2 °F 44% 30.26 in 10.0 mi East 8.1 mph 18.4 mph N/A   Clear
9:15 AM 53.6 °F - 30.2 °F 41% 30.27 in 10.0 mi East 5.8 mph - N/A   Clear
9:35 AM 55.4 °F - 30.2 °F 38% 30.27 in 10.0 mi East 9.2 mph - N/A   Clear
10:15 AM 57.2 °F - 28.4 °F 33% 30.27 in 10.0 mi East 5.8 mph - N/A   Clear
10:35 AM 59.0 °F - 28.4 °F 31% 30.27 in 10.0 mi ESE 8.1 mph - N/A   Clear
10:55 AM 59.0 °F - 28.4 °F 31% 30.26 in 10.0 mi ENE 8.1 mph - N/A   Clear
11:35 AM 60.8 °F - 28.4 °F 29% 30.24 in 10.0 mi East 6.9 mph - N/A   Clear
11:55 AM 60.8 °F - 28.4 °F 29% 30.22 in 10.0 mi ENE 10.4 mph 16.1 mph N/A   Clear
12:15 PM 62.6 °F - 26.6 °F 26% 30.20 in 10.0 mi East 9.2 mph - N/A   Clear
12:35 PM 62.6 °F - 26.6 °F 26% 30.19 in 10.0 mi ESE 9.2 mph - N/A   Clear
12:55 PM 62.6 °F - 26.6 °F 26% 30.17 in 10.0 mi East 6.9 mph - N/A   Clear
1:15 PM 62.6 °F - 24.8 °F 24% 30.16 in 10.0 mi ESE 6.9 mph - N/A   Clear
1:35 PM 64.4 °F - 23.0 °F 21% 30.14 in 10.0 mi SE 10.4 mph 18.4 mph N/A   Clear
1:55 PM 64.4 °F - 26.6 °F 24% 30.14 in 10.0 mi ESE 6.9 mph - N/A   Clear
2:15 PM 62.6 °F - 23.0 °F 22% 30.12 in 10.0 mi ESE 8.1 mph - N/A   Clear
2:35 PM 64.4 °F - 23.0 °F 21% 30.12 in 10.0 mi ESE 8.1 mph 16.1 mph N/A   Clear
2:55 PM 62.6 °F - 24.8 °F 24% 30.11 in 10.0 mi ESE 10.4 mph 16.1 mph N/A   Clear
3:15 PM 62.6 °F - 24.8 °F 24% 30.11 in 10.0 mi SE 11.5 mph 18.4 mph N/A   Clear
3:35 PM 62.6 °F - 24.8 °F 24% 30.11 in 10.0 mi East 6.9 mph - N/A   Clear
3:55 PM 62.6 °F - 24.8 °F 24% 30.11 in 10.0 mi ESE 5.8 mph 17.3 mph N/A   Clear
4:15 PM 62.6 °F - 23.0 °F 22% 30.10 in 10.0 mi ESE 8.1 mph - N/A   Scattered Clouds
4:35 PM 62.6 °F - 23.0 °F 22% 30.10 in 10.0 mi East 4.6 mph - N/A   Mostly Cloudy
5:35 PM 60.8 °F - 21.2 °F 22% 30.09 in 10.0 mi SE 5.8 mph - N/A   Mostly Cloudy
5:55 PM 60.8 °F - 23.0 °F 23% 30.09 in 10.0 mi ESE 6.9 mph - N/A   Mostly Cloudy
6:15 PM 60.8 °F - 23.0 °F 23% 30.10 in 10.0 mi SE 5.8 mph - N/A   Scattered Clouds
6:55 PM 59.0 °F - 26.6 °F 29% 30.10 in 10.0 mi ESE 6.9 mph - N/A   Mostly Cloudy
7:15 PM 59.0 °F - 26.6 °F 29% 30.09 in 10.0 mi SE 6.9 mph - N/A   Overcast
7:35 PM 59.0 °F - 28.4 °F 31% 30.10 in 10.0 mi ESE 5.8 mph - N/A   Overcast
7:55 PM 59.0 °F - 28.4 °F 31% 30.10 in 10.0 mi ESE 8.1 mph - N/A   Overcast
8:15 PM 59.0 °F - 28.4 °F 31% 30.09 in 10.0 mi ESE 8.1 mph - N/A   Overcast
8:35 PM 59.0 °F - 28.4 °F 31% 30.08 in 10.0 mi ESE 4.6 mph - N/A   Overcast
8:55 PM 59.0 °F - 28.4 °F 31% 30.08 in 10.0 mi ESE 9.2 mph - N/A   Overcast
9:15 PM 59.0 °F - 30.2 °F 34% 30.08 in 10.0 mi ESE 8.1 mph 17.3 mph N/A   Overcast
9:35 PM 59.0 °F - 30.2 °F 34% 30.10 in 10.0 mi ESE 5.8 mph - N/A   Overcast
9:55 PM 57.2 °F - 30.2 °F 36% 30.10 in 10.0 mi ESE 5.8 mph - N/A   Overcast
10:15 PM 57.2 °F - 30.2 °F 36% 30.10 in 10.0 mi ESE 4.6 mph - N/A   Overcast
10:35 PM 57.2 °F - 30.2 °F 36% 30.12 in 10.0 mi SSE 4.6 mph - N/A   Overcast
10:55 PM 57.2 °F - 30.2 °F 36% 30.11 in 10.0 mi SE 3.5 mph - N/A   Overcast
11:15 PM 57.2 °F - 30.2 °F 36% 30.10 in 10.0 mi SE 9.2 mph - N/A   Overcast
11:35 PM 55.4 °F - 30.2 °F 38% 30.07 in 10.0 mi ESE 10.4 mph 16.1 mph N/A   Overcast
11:55 PM 55.4 °F - 30.2 °F 38% 30.06 in 10.0 mi SSE 10.4 mph 17.3 mph N/A   Overcast